Cahokia, IL

7:40 PM CDT on July 26, 2017 (GMT -0500)
Saint Louis Downtown

Weather History for KCPS - December, 2012

Change the Weather History Date:

Friday, December 7, 2012

  Actual Average Record
Temperature  
Mean Temperature 50 °F -  
Max Temperature 57 °F 62 °F 71 °F (1966)
Min Temperature 43 °F 50 °F 3 °F (1950)
Degree Days  
Heating Degree Days 15    
Moisture  
Dew Point 47 °F    
Average Humidity 88    
Maximum Humidity 100    
Minimum Humidity 72    
Precipitation  
Precipitation 0.04 in - - ()
Sea Level Pressure  
Sea Level Pressure 29.87 in    
Wind  
Wind Speed 2 mph (SE)    
Max Wind Speed 7 mph    
Max Gust Speed -    
Visibility 6 miles    
Events Fog , Rain    
Averages and records for this station are not official NWS values.
T = Trace of Precipitation, MM = Missing Value Source: NWS Daily Summary

Daily Weather History Graph

Daily Weather History Graph

Search for Another Location

Airport or City:

Trip Planner

Search our weather history database for the weather conditions in past years. The results will help you decide how hot, cold, wet, or windy it might be!

Date:

Astronomy

Dec. 07, 2012 Rise Set
Actual Time 7:05 AM CST 4:39 PM CST
Civil Twilight 6:35 AM CST 5:08 PM CST
Nautical Twilight 6:02 AM CST 5:42 PM CST
Astronomical Twilight 5:30 AM CST 6:14 PM CST
Moon 12:28 AM CST (12/7) 12:32 PM CST (12/7)
Length of Visible Light 10h 33m
Length of Day
9h 34m
Last Quarter, 38% of the Moon is Illuminated
Dec 7
Last Quarter
Dec 13
New
Dec 19
First Quarter
Dec 28
Full
Jan 4
Last Quarter

Hourly Weather History & Observations

Time (CST) Temp. Windchill Dew Point Humidity Pressure Visibility Wind Dir Wind Speed Gust Speed Precip Events Conditions
12:53 AM 44.1 °F - 41.0 °F 89% 29.93 in 10.0 mi Calm Calm - N/A   Clear
1:53 AM 43.0 °F - 39.9 °F 89% 29.92 in 10.0 mi Calm Calm - N/A   Clear
2:21 AM 44.6 °F - 42.8 °F 93% 29.93 in 10.0 mi Calm Calm - N/A   Mostly Cloudy
2:53 AM 46.0 °F - 43.0 °F 89% 29.92 in 10.0 mi Calm Calm - N/A   Overcast
3:53 AM 46.0 °F - 44.1 °F 93% 29.90 in 9.0 mi Calm Calm - N/A   Overcast
4:12 AM 46.4 °F 44.3 °F 44.6 °F 93% 29.89 in 9.0 mi SSE 4.6 mph - N/A   Overcast
4:21 AM 48.2 °F - 46.4 °F 93% 29.89 in 7.0 mi SE 5.8 mph - N/A   Overcast
4:53 AM 48.9 °F - 46.9 °F 93% 29.88 in 4.0 mi ESE 3.5 mph - N/A   Overcast
5:53 AM 48.9 °F - 46.9 °F 93% 29.89 in 2.5 mi ESE 3.5 mph - N/A   Overcast
6:09 AM 48.2 °F - 46.4 °F 93% 29.88 in 2.5 mi Calm Calm - N/A   Overcast
6:25 AM 48.2 °F - 46.4 °F 93% 29.88 in 0.8 mi East 3.5 mph - N/A   Overcast
6:53 AM 48.9 °F - 48.0 °F 97% 29.88 in 0.2 mi ESE 3.5 mph - N/A Fog Fog
7:53 AM 48.9 °F - 48.0 °F 97% 29.88 in 0.2 mi SSE 5.8 mph - N/A Fog Fog
7:56 AM 48.2 °F - 48.2 °F 100% 29.88 in 0.2 mi SSE 5.8 mph - N/A Fog Fog
8:53 AM 51.1 °F - 48.9 °F 92% 29.89 in 1.0 mi SSE 3.5 mph - N/A   Overcast
9:53 AM 53.1 °F - 50.0 °F 89% 29.88 in 9.0 mi SSE 4.6 mph - N/A   Overcast
11:31 AM 53.6 °F - 50.0 °F 88% 29.85 in 5.0 mi Calm Calm - N/A   Overcast
12:53 PM 55.9 °F - 50.0 °F 80% 29.83 in 10.0 mi WSW 4.6 mph - N/A   Mostly Cloudy
1:14 PM 55.4 °F - 50.0 °F 82% 29.82 in 10.0 mi West 5.8 mph - N/A   Overcast
1:53 PM 57.0 °F - 50.0 °F 77% 29.81 in 10.0 mi NW 3.5 mph - N/A   Overcast
2:17 PM 57.2 °F - 50.0 °F 77% 29.81 in 10.0 mi Calm Calm - N/A   Mostly Cloudy
2:27 PM 57.2 °F - 48.2 °F 72% 29.82 in 10.0 mi Variable 3.5 mph - N/A   Mostly Cloudy
2:53 PM 57.9 °F - 48.9 °F 72% 29.82 in 10.0 mi West 3.5 mph - N/A   Mostly Cloudy
3:53 PM 57.0 °F - 48.9 °F 74% 29.82 in 10.0 mi NNW 5.8 mph - N/A   Overcast
4:53 PM 54.0 °F - 48.0 °F 80% 29.83 in 8.0 mi North 6.9 mph - N/A   Overcast
5:53 PM 52.0 °F - 48.0 °F 86% 29.86 in 6.0 mi North 3.5 mph - N/A   Overcast
7:53 PM 51.1 °F - 46.9 °F 86% 29.87 in 6.0 mi North 5.8 mph - N/A   Overcast
8:53 PM 50.0 °F - 46.9 °F 89% 29.87 in 6.0 mi Calm Calm - N/A   Overcast
9:34 PM 50.0 °F - 46.4 °F 87% 29.87 in 7.0 mi Calm Calm - N/A   Overcast
10:53 PM 50.0 °F - 48.0 °F 93% 29.88 in 5.0 mi Calm Calm - 0.00 in Rain Light Rain
11:44 PM 48.2 °F - 46.4 °F 93% 29.88 in 2.5 mi WNW 6.9 mph - 0.03 in Rain Light Rain
11:53 PM 48.9 °F - 48.0 °F 97% 29.88 in 2.0 mi NW 4.6 mph - 0.04 in Rain Light Rain